Tracking 27380 objects as of 6-Jun-2023
HD Live streaming from Space Station
objects crossing your sky now

OPS 4682 DEB

Track OPS 4682 DEB now!
10-day predictions


NORAD ID: 38386
Int'l Code: 1965-027CP
Perigee: 1,243.7 km
Apogee: 1,291.1 km
Inclination: 90.3 °
Period: 110.7 minutes
Semi major axis: 7638 km
RCS: 0.0112 m2 (small)
Launch date: April 3, 1965
Source: United States (US)
Launch site: AIR FORCE WESTERN TEST RANGE (AFWTR)

Note: This is SATELLITE DEBRIS
Your satellite tracking list
Your tracking list is empty




NASA's NSSDC Master Catalog

Two Line Element Set (TLE):
1 38386U 65027CP  23155.80941551  .00000998  00000-0  32641-2 0  9991
2 38386  90.2562   6.5928 0030977 271.8258  87.9316 13.00469772513566
Source of the keplerian elements: AFSPC